Wind_Speed
17 11 11 14 12 13 7 6 2 2 3 4 3 2 2 2 6 6 5 6 5 2 2 4 5 5 6 6 7 8 9 9 11 10 8 6 6 6 5 6 6 8 6 4 4 4 4 5 6
16 13 12 17 17 9 3 6 3 3 4 4 2 1 2 3 3 2 2 1 1 1 1 0 2 3 3 5 7 6 7 8 6 9 9 7 6 5 5 4 5 7 6 3 3 3 4 5 6
16 19 11 14 7 9 9 6 5 4 4 3 2 1 2 4 3 3 2 1 1 2 2 1 1 2 4 6 6 6 5 5 6 8 10 10 8 6 4 4 4 6 4 3 3 4 4 5 6
16 11 21 10 11 10 10 9 9 7 8 8 7 7 5 4 5 4 3 2 1 2 2 2 1 1 3 5 5 4 5 7 7 7 9 10 5 4 4 5 4 3 1 2 4 4 4 4 4
14 26 14 12 12 10 9 8 8 8 8 9 10 10 7 5 8 7 6 4 3 3 1 1 1 2 4 5 6 4 4 2 2 4 4 5 6 5 5 4 3 2 1 1 3 5 5 5 4
25 16 8 12 10 9 8 7 7 6 6 8 9 8 7 7 9 7 6 3 3 4 3 2 3 4 5 4 3 1 0 1 1 1 1 2 5 6 6 5 3 1 1 2 3 4 4 5 5
20 13 11 10 9 8 9 9 8 10 10 9 7 7 7 7 8 6 5 4 3 3 3 2 2 4 4 4 3 1 1 3 4 3 2 3 9 7 8 5 2 1 1 2 3 3 2 5 5
24 14 13 13 9 9 12 11 10 11 11 10 9 7 7 7 6 6 4 3 4 3 1 2 3 4 5 5 4 3 4 6 6 6 6 3 7 10 12 6 3 3 4 3 2 3 3 5 6
22 9 8 13 12 14 17 14 14 14 18 17 13 10 9 8 7 7 5 4 4 4 4 2 1 2 4 4 5 6 8 8 11 16 10 7 3 9 6 5 4 3 3 3 3 3 4 5 3
9 6 10 10 11 18 18 15 14 18 19 17 15 12 12 11 10 10 8 7 7 5 4 4 4 4 2 2 3 5 8 10 9 4 9 4 3 4 7 4 2 3 3 4 3 3 5 4 2
14 8 7 9 11 14 16 15 21 20 18 17 14 15 14 12 11 11 10 8 6 5 3 3 4 4 4 4 4 3 6 11 10 7 6 6 1 0 2 4 2 3 4 4 5 5 4 4 3
4 10 9 9 11 14 15 20 18 17 19 16 12 13 13 11 10 11 12 10 7 6 4 5 4 3 4 5 5 3 8 7 4 4 3 5 1 1 3 5 4 2 3 4 5 8 7 4 2
4 7 7 8 11 13 15 17 16 15 14 15 14 14 17 20 19 15 13 11 10 9 8 7 5 3 2 4 7 6 6 5 4 5 6 4 3 4 4 6 7 4 3 5 5 8 9 7 6
2 11 4 6 8 11 14 13 15 14 15 14 12 13 18 23 21 19 17 13 13 12 12 10 10 5 6 7 9 7 12 3 6 5 4 5 4 5 5 7 7 6 6 5 5 7 7 9 8
10 6 5 4 6 9 11 11 12 12 13 13 13 10 14 19 18 17 18 18 15 15 16 20 14 10 9 11 15 14 4 10 3 3 6 2 4 5 1 4 4 6 7 6 5 7 7 7 8
4 8 3 11 4 10 6 7 6 11 12 11 11 12 10 16 19 18 14 15 16 16 16 18 20 19 15 13 14 12 15 10 8 2 6 2 4 5 5 6 8 8 9 9 7 8 8 7 6
6 2 2 11 13 6 4 2 8 10 12 13 13 11 11 12 16 22 14 13 12 13 14 15 16 17 14 16 13 12 12 13 10 6 5 9 1 2 2 6 10 13 11 12 11 8 9 8 6
7 6 3 3 9 5 3 8 12 9 12 11 15 14 15 19 13 15 14 11 10 10 10 11 13 14 15 14 13 14 15 12 14 11 6 8 9 6 4 6 7 9 12 11 12 11 11 11 9
10 6 5 7 8 1 3 8 4 10 8 10 15 16 17 17 19 19 11 5 6 7 8 9 11 15 14 11 12 13 13 13 12 12 10 8 10 9 6 11 8 5 5 8 12 10 10 11 12
8 3 6 10 5 7 9 3 7 13 6 11 12 19 16 19 19 18 19 10 10 8 9 9 11 11 14 16 18 18 18 11 12 11 10 9 9 8 8 7 7 5 5 7 9 15 16 14 14
2 2 9 4 1 1 4 8 14 11 15 13 13 17 15 13 15 11 7 11 10 11 10 9 9 10 14 19 19 20 20 11 6 3 7 8 9 8 8 8 6 7 6 6 8 11 11 12 14
11 12 9 5 1 13 9 5 5 15 18 6 8 12 11 10 12 5 2 11 8 9 12 8 7 12 18 20 21 20 21 18 8 6 7 9 10 10 10 9 6 5 8 9 9 8 9 10 10
8 11 9 7 3 6 10 5 20 17 17 9 12 15 13 13 11 7 5 8 9 8 7 10 8 9 14 16 16 18 18 17 15 9 8 10 11 12 11 11 12 11 8 9 10 9 9 9 12
11 8 6 3 3 3 11 6 17 16 9 14 11 14 13 14 10 12 11 12 14 12 9 9 12 15 17 18 19 18 17 15 14 12 11 10 12 14 17 15 15 15 16 12 9 8 8 10 9
13 8 6 8 10 13 7 5 24 28 14 12 8 8 8 9 13 12 13 16 16 15 13 10 10 14 18 19 19 19 20 19 16 17 15 14 14 16 17 19 20 18 16 14 11 12 12 11 13
8 9 14 15 9 10 10 10 23 10 11 12 13 11 9 9 11 8 10 18 23 12 17 17 14 19 20 22 22 21 20 21 21 19 20 21 22 20 19 22 24 24 21 20 19 17 16 16 14
12 9 12 13 11 13 12 19 18 18 11 14 12 13 15 13 6 6 12 9 12 15 20 27 23 23 21 24 24 24 25 25 24 24 24 25 26 27 26 27 26 27 27 25 25 22 21 19 20
18 9 10 4 9 13 16 15 24 30 16 13 12 11 12 11 12 11 12 15 20 20 18 16 23 24 25 24 24 25 27 28 28 28 29 30 31 33 33 33 33 32 31 31 30 29 27 26 25
16 14 14 9 9 11 9 19 24 7 13 18 17 15 16 16 16 16 14 18 21 22 23 24 28 28 31 30 28 29 29 29 30 30 32 32 34 38 39 38 37 35 35 36 37 37 34 32 32
16 13 12 9 17 18 12 23 17 13 16 25 25 22 22 22 23 23 24 24 23 27 28 28 25 27 31 32 31 33 31 28 31 31 33 36 38 40 42 44 40 38 37 37 37 37 37 37 36
Wind_Direction
33 57 52 63 47 50 65 70 334 104 18 40 59 39 118 147 161 181 185 196 207 218 24 42 41 52 72 82 101 100 101 95 85 79 94 79 102 99 100 83 65 54 50 72 107 129 154 187 194
27 27 36 50 55 351 34 337 348 4 9 13 20 248 148 166 159 141 130 161 241 259 200 122 32 82 106 113 118 99 105 93 82 81 81 75 89 111 101 91 66 57 53 75 129 161 181 206 201
22 32 24 56 65 43 48 60 59 48 50 56 61 132 105 123 119 100 72 137 155 189 226 234 161 162 156 147 135 106 100 78 81 67 63 58 80 104 123 108 77 58 58 102 139 173 194 213 211
23 16 40 41 36 40 40 52 68 53 69 68 73 77 87 112 105 93 92 100 156 193 203 200 185 243 174 173 153 120 100 78 71 57 64 64 82 93 126 120 101 61 54 127 157 171 208 222 220
27 53 19 36 34 38 51 61 67 73 69 67 60 64 71 99 101 85 78 82 102 110 148 191 187 206 149 158 156 147 102 72 73 62 76 77 45 91 108 121 105 78 328 228 185 183 207 235 226
53 68 28 44 36 43 46 49 51 56 49 46 56 57 64 68 79 76 73 85 95 115 121 174 194 174 175 186 191 211 36 259 257 159 186 35 331 76 85 89 85 79 238 254 244 218 209 234 236
88 51 48 35 42 45 48 45 34 35 32 30 41 61 63 70 77 75 59 70 84 103 131 159 198 221 227 238 270 275 217 225 205 211 261 209 303 136 134 95 75 237 269 267 263 269 214 212 216
95 53 54 46 55 53 50 39 37 48 48 48 51 59 67 80 83 81 92 73 89 91 129 186 215 234 248 254 258 264 236 228 208 241 226 255 349 180 133 143 140 175 242 238 262 291 246 195 173
73 97 76 59 52 58 60 48 49 59 62 55 48 43 49 59 75 77 80 102 104 89 61 52 5 284 276 261 252 253 261 262 245 293 198 188 107 112 146 158 162 198 232 243 250 286 183 174 180
84 130 106 84 65 78 73 64 61 61 63 57 46 52 61 57 72 79 92 113 122 116 90 68 39 20 2 354 296 265 271 258 265 256 168 189 154 180 181 171 170 208 226 244 235 236 185 177 195
105 88 66 94 95 92 79 73 61 60 62 65 70 65 65 72 86 95 97 108 128 121 99 59 24 12 16 345 317 306 282 261 246 121 122 145 173 11 130 195 240 205 221 238 236 233 211 175 175
345 97 99 101 103 92 86 77 71 62 62 65 61 58 56 57 78 84 86 92 91 78 60 53 39 10 345 344 326 294 240 259 123 148 140 171 97 257 260 223 240 265 236 241 245 235 229 221 199
94 93 85 101 107 104 84 76 71 62 56 56 60 61 60 66 73 69 69 70 71 71 70 63 46 39 1 345 334 312 282 159 140 106 84 51 333 298 281 260 249 260 249 227 257 260 240 240 220
139 100 121 84 109 96 82 69 69 56 48 50 48 56 65 67 70 70 60 54 64 65 57 54 59 87 50 21 350 333 145 136 163 118 88 48 22 339 260 261 271 277 276 241 243 268 244 241 232
90 40 30 137 126 83 77 55 51 47 39 33 52 51 60 64 55 57 60 61 79 72 71 59 60 69 57 45 17 28 80 89 139 255 284 349 13 7 225 244 263 274 261 269 239 255 246 250 253
74 119 217 310 178 104 36 88 10 41 43 35 26 45 51 51 51 33 40 63 69 70 68 63 74 87 71 71 60 60 63 70 32 275 308 357 7 350 327 276 262 276 266 266 258 241 251 253 252
41 215 228 317 323 174 13 11 314 22 32 31 24 15 25 31 13 26 27 31 59 61 57 57 71 77 70 58 61 65 66 62 67 44 238 11 39 350 289 288 288 263 259 271 255 236 241 249 244
209 216 268 250 289 306 212 272 337 12 7 17 7 18 11 22 15 2 3 16 36 61 62 53 51 56 50 46 44 44 40 43 59 60 35 38 45 45 22 321 297 257 255 261 243 252 242 232 242
192 199 270 253 237 75 186 277 346 314 350 339 348 13 12 5 6 351 318 340 28 20 28 30 24 21 15 40 35 27 37 35 26 29 32 35 48 46 43 45 35 354 288 298 281 263 282 269 239
198 247 242 273 230 117 284 235 235 286 314 317 322 353 2 360 5 31 83 78 22 11 10 17 26 23 31 29 20 13 12 13 14 18 20 24 17 27 42 60 37 13 338 314 301 289 280 283 291
193 218 246 259 306 188 292 294 251 286 287 295 308 322 351 349 352 42 79 21 11 13 15 6 25 21 1 1 0 4 8 1 1 22 19 27 27 14 14 13 15 356 347 332 313 307 286 271 282
247 208 228 221 49 293 320 266 232 275 278 269 347 318 334 329 342 23 83 328 2 0 18 20 352 351 346 353 352 357 19 15 18 35 15 13 9 359 357 357 354 341 334 332 323 314 292 277 274
250 201 213 234 207 290 270 175 260 289 277 265 321 325 319 302 315 317 317 312 329 331 354 3 10 356 347 347 346 350 360 9 12 5 339 334 343 347 346 338 331 321 321 319 330 315 310 277 273
202 214 231 308 342 250 237 207 233 170 325 281 326 322 306 285 294 296 292 289 304 307 324 340 360 -0 355 349 341 337 338 340 346 343 343 330 326 323 323 321 319 328 322 297 300 310 313 301 294
209 191 287 259 248 246 269 259 245 254 272 303 331 351 8 318 305 293 293 290 292 293 299 313 336 339 334 332 331 322 320 320 319 320 317 315 309 309 315 310 309 309 308 311 293 294 285 290 298
225 202 238 247 249 275 235 250 248 276 273 276 289 298 312 327 319 303 327 314 293 289 297 286 291 310 315 311 316 318 314 309 306 305 307 310 309 308 303 301 303 303 297 292 293 294 294 289 286
231 232 213 240 265 248 275 259 301 286 280 298 288 289 297 305 333 267 311 315 345 293 286 266 275 287 305 304 305 311 309 306 301 299 300 301 300 298 296 294 290 289 291 290 286 284 284 285 288
219 204 221 246 242 234 247 238 272 271 283 289 282 285 296 291 295 303 297 289 300 297 293 279 277 291 297 292 296 300 300 297 296 295 295 297 298 299 296 294 291 285 282 281 280 278 277 280 281
214 226 214 240 213 240 266 224 252 14 300 294 290 289 290 289 285 285 285 306 292 286 282 275 283 293 297 295 295 296 293 288 285 289 295 300 300 299 297 294 291 288 285 282 277 275 275 274 278
228 230 214 258 252 231 254 280 289 284 275 291 292 289 289 290 290 288 297 298 287 283 277 276 292 299 294 294 292 296 291 285 288 291 293 295 298 297 294 293 290 285 283 281 280 279 278 277 274
Height
5902 5901 5901 5901 5903 5899 5899 5897 5894 5895 5891 5890 5890 5889 5889 5887 5887 5889 5886 5885 5884 5884 5883 5884 5884 5884 5886 5887 5888 5888 5888 5889 5889 5889 5889 5888 5887 5886 5887 5887 5887 5887 5886 5886 5886 5887 5889 5889 5890
5905 5903 5903 5903 5904 5902 5900 5896 5894 5893 5891 5890 5889 5889 5889 5888 5887 5887 5887 5886 5886 5886 5885 5885 5886 5886 5888 5888 5889 5890 5889 5889 5889 5889 5889 5888 5887 5887 5887 5888 5888 5887 5886 5887 5887 5887 5889 5890 5891
5906 5904 5905 5903 5904 5901 5899 5896 5895 5893 5891 5889 5889 5889 5889 5889 5888 5888 5889 5888 5888 5887 5887 5886 5887 5888 5889 5889 5890 5890 5890 5890 5889 5888 5888 5888 5887 5887 5887 5888 5887 5887 5887 5887 5888 5889 5889 5890 5891
5906 5906 5904 5907 5904 5901 5899 5897 5896 5898 5893 5891 5891 5891 5890 5889 5889 5889 5889 5889 5888 5888 5888 5887 5888 5889 5890 5890 5890 5890 5891 5891 5889 5888 5888 5888 5888 5888 5888 5887 5888 5889 5888 5888 5888 5889 5890 5891 5892
5909 5908 5913 5908 5906 5903 5901 5899 5897 5897 5896 5894 5893 5893 5892 5891 5890 5889 5889 5889 5889 5889 5889 5888 5889 5889 5889 5890 5890 5890 5891 5891 5890 5889 5889 5888 5889 5888 5887 5887 5888 5888 5889 5889 5889 5890 5891 5892 5893
5911 5919 5918 5912 5908 5905 5903 5901 5900 5899 5898 5896 5895 5894 5894 5893 5891 5890 5890 5890 5890 5889 5889 5889 5889 5890 5891 5891 5891 5891 5891 5891 5891 5890 5890 5889 5889 5888 5888 5889 5890 5890 5890 5890 5891 5891 5892 5892 5892
5921 5923 5919 5913 5910 5908 5905 5904 5902 5900 5899 5898 5896 5895 5895 5894 5893 5892 5891 5891 5890 5890 5889 5889 5890 5891 5891 5892 5892 5892 5891 5891 5890 5889 5889 5888 5887 5888 5888 5890 5890 5890 5890 5891 5891 5892 5892 5892 5893
5921 5927 5923 5917 5912 5910 5908 5907 5905 5903 5902 5900 5898 5897 5896 5894 5893 5892 5892 5892 5892 5891 5891 5890 5891 5891 5892 5892 5892 5892 5891 5890 5890 5890 5890 5889 5887 5886 5888 5890 5891 5892 5891 5891 5892 5893 5893 5893 5893
5924 5929 5926 5924 5916 5912 5911 5909 5907 5905 5903 5902 5901 5899 5898 5896 5894 5892 5892 5892 5893 5892 5892 5892 5892 5892 5893 5893 5893 5893 5891 5891 5890 5887 5888 5889 5888 5887 5889 5890 5890 5891 5891 5891 5892 5893 5894 5894 5894
5932 5928 5925 5926 5921 5916 5914 5913 5911 5909 5906 5905 5904 5902 5900 5898 5895 5894 5893 5893 5893 5892 5892 5892 5893 5894 5894 5893 5893 5893 5892 5891 5890 5888 5888 5889 5889 5889 5889 5890 5891 5891 5891 5891 5892 5893 5893 5895 5895
5931 5928 5928 5923 5921 5919 5917 5916 5914 5913 5910 5908 5907 5905 5902 5899 5896 5895 5894 5893 5893 5893 5893 5893 5893 5894 5894 5892 5892 5892 5891 5890 5888 5889 5889 5891 5891 5890 5890 5890 5891 5891 5891 5891 5892 5893 5894 5894 5895
5929 5927 5926 5924 5922 5922 5920 5919 5918 5917 5914 5912 5910 5907 5905 5901 5898 5897 5897 5895 5894 5894 5894 5894 5894 5893 5893 5892 5891 5891 5889 5890 5889 5890 5889 5891 5891 5891 5891 5891 5891 5891 5891 5891 5891 5892 5893 5894 5894
5935 5929 5929 5926 5925 5925 5923 5923 5921 5919 5917 5915 5913 5911 5908 5904 5902 5901 5899 5897 5896 5895 5895 5895 5894 5894 5893 5892 5890 5890 5888 5889 5891 5890 5891 5891 5891 5892 5892 5892 5892 5891 5891 5891 5891 5892 5892 5893 5894
5931 5931 5933 5930 5927 5927 5926 5926 5924 5922 5919 5917 5916 5914 5910 5908 5906 5905 5903 5900 5899 5897 5897 5896 5893 5893 5894 5893 5890 5888 5888 5891 5892 5892 5892 5891 5891 5891 5891 5891 5891 5891 5891 5891 5891 5892 5892 5893 5893
5933 5936 5935 5933 5930 5930 5927 5929 5927 5924 5922 5920 5919 5916 5914 5913 5911 5909 5907 5904 5902 5900 5898 5897 5894 5894 5895 5894 5891 5889 5890 5887 5892 5892 5892 5892 5890 5890 5889 5889 5890 5891 5889 5890 5890 5891 5892 5892 5893
5939 5940 5938 5935 5933 5932 5928 5929 5930 5926 5924 5922 5920 5919 5919 5917 5915 5913 5911 5908 5906 5903 5900 5899 5897 5896 5896 5895 5893 5890 5891 5890 5890 5890 5891 5890 5889 5889 5889 5889 5889 5889 5890 5888 5888 5889 5890 5891 5891
5941 5937 5943 5938 5934 5936 5932 5930 5930 5927 5925 5923 5921 5921 5921 5921 5919 5917 5915 5914 5910 5908 5905 5903 5900 5898 5898 5896 5894 5892 5891 5891 5890 5890 5891 5891 5889 5888 5888 5889 5888 5888 5888 5887 5886 5886 5887 5890 5891
5943 5944 5942 5942 5937 5934 5935 5934 5931 5928 5925 5923 5922 5922 5922 5923 5920 5919 5917 5916 5915 5910 5907 5905 5903 5901 5899 5897 5896 5896 5895 5894 5893 5893 5892 5891 5890 5889 5887 5887 5886 5886 5886 5886 5885 5883 5885 5886 5889
5939 5942 5942 5939 5936 5935 5937 5937 5930 5930 5927 5923 5921 5924 5923 5922 5922 5917 5914 5917 5915 5913 5910 5906 5904 5903 5900 5899 5899 5898 5897 5896 5894 5895 5894 5892 5890 5888 5886 5886 5884 5884 5885 5885 5885 5880 5883 5884 5884
5939 5942 5941 5935 5934 5935 5936 5937 5937 5931 5929 5926 5923 5923 5925 5923 5922 5917 5915 5917 5916 5915 5912 5909 5906 5905 5903 5902 5900 5900 5898 5897 5895 5895 5894 5893 5892 5890 5887 5885 5884 5884 5884 5884 5884 5884 5882 5883 5883
5938 5942 5939 5936 5934 5936 5936 5935 5932 5931 5929 5927 5926 5923 5923 5925 5923 5921 5917 5918 5917 5915 5912 5909 5907 5906 5904 5902 5900 5899 5898 5896 5894 5893 5894 5894 5893 5891 5889 5888 5885 5885 5884 5883 5882 5882 5882 5882 5881
5936 5936 5936 5936 5937 5935 5936 5937 5933 5928 5926 5926 5925 5924 5924 5925 5923 5922 5920 5917 5917 5916 5913 5910 5907 5906 5905 5902 5899 5898 5897 5895 5894 5894 5893 5892 5892 5891 5889 5888 5886 5885 5883 5882 5881 5881 5881 5881 5881
5931 5931 5934 5934 5935 5939 5937 5938 5931 5927 5921 5923 5923 5923 5924 5923 5922 5920 5919 5916 5915 5915 5912 5910 5908 5907 5905 5902 5900 5898 5896 5894 5895 5894 5892 5892 5891 5890 5889 5888 5886 5884 5883 5881 5880 5879 5879 5880 5880
5927 5930 5931 5932 5934 5937 5937 5936 5922 5909 5916 5922 5922 5921 5921 5921 5921 5919 5917 5916 5914 5913 5910 5908 5906 5905 5904 5902 5899 5898 5896 5895 5895 5894 5893 5891 5890 5889 5888 5886 5885 5884 5882 5879 5878 5878 5877 5877 5877
5925 5930 5934 5935 5933 5935 5930 5934 5928 5924 5923 5921 5922 5921 5920 5920 5918 5918 5917 5915 5915 5913 5910 5908 5905 5904 5903 5901 5899 5898 5896 5894 5893 5891 5891 5889 5889 5887 5885 5884 5883 5882 5881 5879 5876 5875 5875 5875 5875
5924 5930 5931 5928 5933 5934 5932 5933 5920 5917 5920 5922 5921 5920 5919 5918 5917 5916 5916 5913 5910 5910 5909 5908 5904 5903 5901 5899 5897 5895 5893 5892 5890 5889 5888 5886 5885 5883 5883 5881 5879 5878 5878 5878 5876 5873 5871 5871 5871
5921 5925 5929 5929 5932 5931 5928 5924 5914 5915 5917 5919 5918 5917 5916 5915 5914 5913 5913 5911 5909 5909 5906 5904 5902 5900 5898 5895 5893 5891 5889 5887 5886 5884 5883 5881 5881 5880 5879 5877 5875 5874 5873 5872 5871 5870 5868 5867 5867
5917 5919 5927 5927 5928 5929 5928 5926 5919 5912 5912 5914 5915 5915 5914 5913 5912 5910 5909 5908 5907 5904 5902 5899 5897 5896 5893 5891 5888 5887 5885 5882 5881 5880 5878 5876 5873 5872 5870 5870 5868 5867 5866 5865 5865 5864 5863 5862 5861
5915 5916 5920 5924 5922 5925 5923 5914 5911 5893 5909 5911 5911 5911 5910 5909 5908 5907 5906 5905 5902 5900 5897 5895 5893 5891 5887 5884 5882 5881 5879 5877 5876 5873 5871 5869 5867 5864 5862 5860 5859 5859 5858 5857 5856 5856 5855 5855 5854
5909 5917 5919 5922 5920 5920 5914 5907 5910 5911 5910 5907 5908 5908 5906 5905 5903 5902 5901 5899 5897 5894 5891 5889 5887 5885 5881 5879 5877 5873 5871 5870 5868 5866 5864 5862 5859 5857 5855 5851 5850 5849 5848 5847 5846 5846 5846 5847 5847